Location: North Fort Myers
(26.6673°N, 81.8801°W)
Time: 14:19:13
(UTC+00:00)

Envisat - Pass Details

Date: 14 August 2022
Orbit: 764 x 765 km, 98.2° (Epoch: 26 September)

Event Time Altitude Azimuth Distance (km) Brightness Sun altitude
Rises 10:09:04 0° 4° (N) 3,230 6.6 -11.3°
Reaches altitude 10° 10:11:26 10° 358° (N) 2,301 5.8 -10.8°
Maximum altitude 10:16:18 48° 285° (WNW) 993 3.3 -9.8°
Drops below altitude 10° 10:21:08 10° 212° (SSW) 2,290 5.0 -8.8°
Enters shadow 10:23:12 - 207° (SSW) 3,099 5.7 -8.4°
